PRIVATE WETTERSTATION BILLIGHEIM-ALLFELD                       ZURCK
Wetterdaten: Donnerstag, 12.01.2017
Datum Zeit Temp. A. Temp. A. min Temp. A. max Feuchte A. Luftdruck Regen Wind Richtung Richtung Sonnenschein ET Solar Taupunkt Windchill Windben Empfang
12.01.2017 00:00 2,7 C 2,7 C 2,8 C 93 % 1011,7 hPa 0,0 l/m 6,4 km/h (2 Bft) W 270 0 min 0,000 mm 0 W/m 1,7 C 2,7 C 19,3 km/h (3 Bft) 97 %
12.01.2017 00:10 2,6 C 2,6 C 2,7 C 92 % 1011,9 hPa 0,0 l/m 4,8 km/h (1 Bft) W-NW 292 0 min 0,000 mm 0 W/m 1,4 C 2,6 C 17,7 km/h (3 Bft) 98 %
12.01.2017 00:20 2,6 C 2,6 C 2,6 C 92 % 1012,0 hPa 0,0 l/m 3,2 km/h (1 Bft) W 270 0 min 0,000 mm 0 W/m 1,4 C 2,6 C 14,5 km/h (3 Bft) 97 %
12.01.2017 00:30 2,5 C 2,5 C 2,6 C 92 % 1012,0 hPa 0,0 l/m 4,8 km/h (1 Bft) W-SW 247 0 min 0,000 mm 0 W/m 1,3 C 2,5 C 17,7 km/h (3 Bft) 98 %
12.01.2017 00:40 2,6 C 2,5 C 2,6 C 92 % 1012,1 hPa 0,0 l/m 6,4 km/h (2 Bft) SW 225 0 min 0,000 mm 0 W/m 1,4 C 2,6 C 19,3 km/h (3 Bft) 97 %
12.01.2017 00:50 2,6 C 2,6 C 2,6 C 92 % 1012,2 hPa 0,0 l/m 4,8 km/h (1 Bft) W 270 0 min 0,000 mm 0 W/m 1,4 C 2,6 C 14,5 km/h (3 Bft) 98 %
12.01.2017 01:00 2,7 C 2,6 C 2,7 C 92 % 1012,3 hPa 0,0 l/m 4,8 km/h (1 Bft) W 270 0 min 0,000 mm 0 W/m 1,5 C 2,7 C 16,1 km/h (3 Bft) 97 %
12.01.2017 01:10 2,6 C 2,6 C 2,7 C 93 % 1012,4 hPa 0,0 l/m 6,4 km/h (2 Bft) W 270 0 min 0,000 mm 0 W/m 1,6 C 2,6 C 19,3 km/h (3 Bft) 97 %
12.01.2017 01:20 2,6 C 2,6 C 2,6 C 93 % 1012,7 hPa 0,0 l/m 4,8 km/h (1 Bft) W 270 0 min 0,000 mm 0 W/m 1,6 C 2,6 C 16,1 km/h (3 Bft) 98 %
12.01.2017 01:30 2,5 C 2,5 C 2,6 C 93 % 1012,7 hPa 0,0 l/m 6,4 km/h (2 Bft) W 270 0 min 0,000 mm 0 W/m 1,5 C 2,5 C 20,9 km/h (4 Bft) 97 %
12.01.2017 01:40 2,5 C 2,5 C 2,5 C 93 % 1012,9 hPa 0,0 l/m 6,4 km/h (2 Bft) W 270 0 min 0,000 mm 0 W/m 1,5 C 2,5 C 16,1 km/h (3 Bft) 98 %
12.01.2017 01:50 2,4 C 2,4 C 2,5 C 93 % 1013,1 hPa 0,0 l/m 4,8 km/h (1 Bft) W 270 0 min 0,000 mm 0 W/m 1,4 C 2,4 C 17,7 km/h (3 Bft) 97 %
12.01.2017 02:00 2,4 C 2,4 C 2,4 C 93 % 1013,2 hPa 0,0 l/m 6,4 km/h (2 Bft) W 270 0 min 0,000 mm 0 W/m 1,4 C 2,4 C 17,7 km/h (3 Bft) 98 %
12.01.2017 02:10 2,4 C 2,4 C 2,4 C 92 % 1013,3 hPa 0,0 l/m 8,0 km/h (2 Bft) W 270 0 min 0,000 mm 0 W/m 1,2 C 0,9 C 22,5 km/h (4 Bft) 98 %
12.01.2017 02:20 2,4 C 2,4 C 2,4 C 92 % 1013,3 hPa 0,0 l/m 8,0 km/h (2 Bft) W 270 0 min 0,000 mm 0 W/m 1,2 C 0,9 C 17,7 km/h (3 Bft) 97 %
12.01.2017 02:30 2,4 C 2,4 C 2,4 C 92 % 1013,3 hPa 0,0 l/m 9,7 km/h (2 Bft) W-SW 247 0 min 0,000 mm 0 W/m 1,2 C -0,6 C 17,7 km/h (3 Bft) 89 %
12.01.2017 02:40 2,4 C 2,4 C 2,4 C 92 % 1013,5 hPa 0,0 l/m 6,4 km/h (2 Bft) W-SW 247 0 min 0,000 mm 0 W/m 1,2 C 2,4 C 16,1 km/h (3 Bft) 97 %
12.01.2017 02:50 2,4 C 2,4 C 2,4 C 92 % 1013,7 hPa 0,0 l/m 6,4 km/h (2 Bft) W 270 0 min 0,000 mm 0 W/m 1,2 C 2,4 C 19,3 km/h (3 Bft) 98 %
12.01.2017 03:00 2,4 C 2,4 C 2,4 C 92 % 1013,8 hPa 0,0 l/m 4,8 km/h (1 Bft) W 270 0 min 0,000 mm 0 W/m 1,2 C 2,4 C 16,1 km/h (3 Bft) 97 %
12.01.2017 03:10 2,5 C 2,4 C 2,5 C 92 % 1013,9 hPa 0,0 l/m 9,7 km/h (2 Bft) W 270 0 min 0,000 mm 0 W/m 1,3 C -0,5 C 25,7 km/h (4 Bft) 97 %
12.01.2017 03:20 2,6 C 2,5 C 2,6 C 91 % 1014,0 hPa 0,0 l/m 9,7 km/h (2 Bft) W 270 0 min 0,000 mm 0 W/m 1,3 C -0,3 C 27,4 km/h (4 Bft) 97 %
12.01.2017 03:30 2,7 C 2,6 C 2,7 C 91 % 1014,0 hPa 0,0 l/m 9,7 km/h (2 Bft) W 270 0 min 0,000 mm 0 W/m 1,4 C -0,2 C 25,7 km/h (4 Bft) 97 %
12.01.2017 03:40 2,7 C 2,7 C 2,7 C 90 % 1014,0 hPa 0,0 l/m 6,4 km/h (2 Bft) W 270 0 min 0,000 mm 0 W/m 1,2 C 2,7 C 17,7 km/h (3 Bft) 98 %
12.01.2017 03:50 2,7 C 2,7 C 2,7 C 90 % 1014,0 hPa 0,0 l/m 6,4 km/h (2 Bft) W 270 0 min 0,000 mm 0 W/m 1,2 C 2,7 C 17,7 km/h (3 Bft) 97 %
12.01.2017 04:00 2,7 C 2,7 C 2,7 C 90 % 1014,0 hPa 0,0 l/m 11,3 km/h (2 Bft) W-SW 247 0 min 0,000 mm 0 W/m 1,2 C -1,4 C 20,9 km/h (4 Bft) 99 %
12.01.2017 04:10 2,7 C 2,7 C 2,7 C 90 % 1013,9 hPa 0,0 l/m 9,7 km/h (2 Bft) W 270 0 min 0,000 mm 0 W/m 1,2 C -0,2 C 22,5 km/h (4 Bft) 97 %
12.01.2017 04:20 2,7 C 2,7 C 2,8 C 89 % 1014,0 hPa 0,0 l/m 6,4 km/h (2 Bft) W 270 0 min 0,000 mm 0 W/m 1,1 C 2,7 C 19,3 km/h (3 Bft) 98 %
12.01.2017 04:30 2,8 C 2,7 C 2,8 C 89 % 1014,0 hPa 0,0 l/m 6,4 km/h (2 Bft) W 270 0 min 0,000 mm 0 W/m 1,2 C 2,8 C 17,7 km/h (3 Bft) 98 %
12.01.2017 04:40 2,8 C 2,8 C 2,8 C 89 % 1013,9 hPa 0,0 l/m 8,0 km/h (2 Bft) W-SW 247 0 min 0,000 mm 0 W/m 1,2 C 1,3 C 19,3 km/h (3 Bft) 97 %
12.01.2017 04:50 2,8 C 2,8 C 2,8 C 89 % 1013,8 hPa 0,0 l/m 9,7 km/h (2 Bft) W-SW 247 0 min 0,000 mm 0 W/m 1,2 C -0,1 C 20,9 km/h (4 Bft) 98 %
12.01.2017 05:00 2,8 C 2,8 C 2,8 C 89 % 1013,9 hPa 0,0 l/m 4,8 km/h (1 Bft) W-SW 247 0 min 0,000 mm 0 W/m 1,2 C 2,8 C 14,5 km/h (3 Bft) 97 %
12.01.2017 05:10 2,7 C 2,7 C 2,8 C 89 % 1013,9 hPa 0,0 l/m 8,0 km/h (2 Bft) W 270 0 min 0,000 mm 0 W/m 1,1 C 1,2 C 17,7 km/h (3 Bft) 98 %
12.01.2017 05:20 2,6 C 2,6 C 2,7 C 90 % 1014,1 hPa 0,0 l/m 4,8 km/h (1 Bft) W 270 0 min 0,000 mm 0 W/m 1,1 C 2,6 C 14,5 km/h (3 Bft) 97 %
12.01.2017 05:30 2,5 C 2,5 C 2,6 C 90 % 1014,1 hPa 0,0 l/m 3,2 km/h (1 Bft) W 270 0 min 0,000 mm 0 W/m 1,0 C 2,5 C 9,7 km/h (2 Bft) 98 %
12.01.2017 05:40 2,4 C 2,4 C 2,5 C 90 % 1014,2 hPa 0,0 l/m 3,2 km/h (1 Bft) W 270 0 min 0,000 mm 0 W/m 0,9 C 2,4 C 11,3 km/h (2 Bft) 88 %
12.01.2017 05:50 2,4 C 2,4 C 2,4 C 91 % 1014,2 hPa 0,0 l/m 3,2 km/h (1 Bft) W 270 0 min 0,000 mm 0 W/m 1,1 C 2,4 C 17,7 km/h (3 Bft) 97 %
12.01.2017 06:00 2,4 C 2,4 C 2,4 C 91 % 1014,2 hPa 0,0 l/m 4,8 km/h (1 Bft) W 270 0 min 0,000 mm 0 W/m 1,1 C 2,4 C 11,3 km/h (2 Bft) 98 %
12.01.2017 06:10 2,4 C 2,3 C 2,4 C 91 % 1014,2 hPa 0,0 l/m 4,8 km/h (1 Bft) W-SW 247 0 min 0,000 mm 0 W/m 1,1 C 2,4 C 11,3 km/h (2 Bft) 97 %
12.01.2017 06:20 2,3 C 2,3 C 2,4 C 91 % 1014,2 hPa 0,0 l/m 1,6 km/h (1 Bft) W 270 0 min 0,000 mm 0 W/m 1,0 C 2,3 C 11,3 km/h (2 Bft) 98 %
12.01.2017 06:30 2,3 C 2,3 C 2,3 C 91 % 1014,2 hPa 0,0 l/m 4,8 km/h (1 Bft) SW 225 0 min 0,000 mm 0 W/m 1,0 C 2,3 C 9,7 km/h (2 Bft) 97 %
12.01.2017 06:40 2,2 C 2,2 C 2,3 C 91 % 1014,2 hPa 0,0 l/m 6,4 km/h (2 Bft) S-SW 202 0 min 0,000 mm 0 W/m 0,9 C 2,2 C 17,7 km/h (3 Bft) 98 %
12.01.2017 06:50 2,2 C 2,2 C 2,2 C 91 % 1014,2 hPa 0,0 l/m 4,8 km/h (1 Bft) SW 225 0 min 0,000 mm 0 W/m 0,9 C 2,2 C 14,5 km/h (3 Bft) 98 %
12.01.2017 07:00 2,2 C 2,1 C 2,2 C 91 % 1014,3 hPa 0,0 l/m 6,4 km/h (2 Bft) SW 225 0 min 0,000 mm 0 W/m 0,9 C 2,2 C 11,3 km/h (2 Bft) 98 %
12.01.2017 07:10 2,2 C 2,1 C 2,2 C 91 % 1014,3 hPa 0,0 l/m 8,0 km/h (2 Bft) S-SW 202 0 min 0,000 mm 0 W/m 0,9 C 0,7 C 16,1 km/h (3 Bft) 98 %
12.01.2017 07:20 2,2 C 2,2 C 2,2 C 91 % 1014,5 hPa 0,0 l/m 6,4 km/h (2 Bft) SW 225 0 min 0,000 mm 0 W/m 0,9 C 2,2 C 14,5 km/h (3 Bft) 97 %
12.01.2017 07:30 2,2 C 2,2 C 2,2 C 91 % 1014,5 hPa 0,0 l/m 6,4 km/h (2 Bft) SW 225 0 min 0,000 mm 0 W/m 0,9 C 2,2 C 14,5 km/h (3 Bft) 98 %
12.01.2017 07:40 2,3 C 2,2 C 2,3 C 91 % 1014,7 hPa 0,0 l/m 8,0 km/h (2 Bft) SW 225 0 min 0,000 mm 0 W/m 1,0 C 0,8 C 17,7 km/h (3 Bft) 98 %
12.01.2017 07:50 2,3 C 2,3 C 2,3 C 91 % 1014,7 hPa 0,0 l/m 8,0 km/h (2 Bft) SW 225 0 min 0,000 mm 0 W/m 1,0 C 0,8 C 16,1 km/h (3 Bft) 100 %
12.01.2017 08:00 2,3 C 2,3 C 2,3 C 91 % 1014,7 hPa 0,0 l/m 9,7 km/h (2 Bft) SW 225 0 min 0,000 mm 0 W/m 1,0 C -0,7 C 22,5 km/h (4 Bft) 100 %
12.01.2017 08:10 2,4 C 2,3 C 2,4 C 91 % 1014,7 hPa 0,0 l/m 9,7 km/h (2 Bft) W-SW 247 0 min 0,000 mm 0 W/m 1,1 C -0,6 C 25,7 km/h (4 Bft) 100 %
12.01.2017 08:20 2,4 C 2,4 C 2,4 C 91 % 1014,6 hPa 0,0 l/m 8,0 km/h (2 Bft) W-SW 247 0 min 0,000 mm 0 W/m 1,1 C 0,9 C 17,7 km/h (3 Bft) 100 %
12.01.2017 08:30 2,4 C 2,4 C 2,4 C 91 % 1014,7 hPa 0,0 l/m 11,3 km/h (2 Bft) W-SW 247 0 min 0,000 mm 7 W/m 1,1 C -1,8 C 32,2 km/h (5 Bft) 100 %
12.01.2017 08:40 2,5 C 2,4 C 2,5 C 91 % 1014,6 hPa 0,0 l/m 9,7 km/h (2 Bft) W 270 0 min 0,000 mm 16 W/m 1,2 C -0,5 C 32,2 km/h (5 Bft) 100 %
12.01.2017 08:50 2,5 C 2,5 C 2,5 C 91 % 1014,7 hPa 0,0 l/m 8,0 km/h (2 Bft) W-SW 247 0 min 0,000 mm 19 W/m 1,2 C 1,0 C 20,9 km/h (4 Bft) 100 %
12.01.2017 09:00 2,6 C 2,5 C 2,6 C 91 % 1014,7 hPa 0,0 l/m 11,3 km/h (2 Bft) W-SW 247 0 min 0,000 mm 23 W/m 1,3 C -1,5 C 20,9 km/h (4 Bft) 100 %
12.01.2017 09:10 2,6 C 2,6 C 2,6 C 91 % 1014,9 hPa 0,0 l/m 8,0 km/h (2 Bft) W-SW 247 0 min 0,000 mm 28 W/m 1,3 C 1,1 C 19,3 km/h (3 Bft) 100 %
12.01.2017 09:20 2,6 C 2,6 C 2,6 C 91 % 1014,8 hPa 0,0 l/m 9,7 km/h (2 Bft) W-SW 247 0 min 0,000 mm 54 W/m 1,3 C -0,3 C 17,7 km/h (3 Bft) 100 %
12.01.2017 09:30 2,7 C 2,6 C 2,7 C 91 % 1014,8 hPa 0,0 l/m 9,7 km/h (2 Bft) SW 225 0 min 0,000 mm 56 W/m 1,4 C -0,2 C 20,9 km/h (4 Bft) 100 %
12.01.2017 09:40 2,8 C 2,6 C 2,8 C 91 % 1014,7 hPa 0,0 l/m 8,6 km/h (2 Bft) W-SW 240 0 min 0,000 mm 60 W/m 1,5 C 0,8 C 16,1 km/h (3 Bft) 97 %
12.01.2017 09:50 2,8 C 2,8 C 2,8 C 91 % 1014,7 hPa 0,0 l/m 10,8 km/h (2 Bft) S-SW 209 0 min 0,000 mm 90 W/m 1,5 C -0,9 C 22,5 km/h (4 Bft) 97 %
12.01.2017 10:00 3,0 C 2,8 C 3,0 C 91 % 1014,6 hPa 0,0 l/m 11,9 km/h (2 Bft) SW 217 0 min 0,000 mm 69 W/m 1,7 C -1,5 C 22,5 km/h (4 Bft) 98 %
12.01.2017 10:10 3,1 C 3,0 C 3,1 C 91 % 1014,5 hPa 0,0 l/m 10,3 km/h (2 Bft) SW 225 10 min 0,025 mm 179 W/m 1,8 C -0,2 C 22,5 km/h (4 Bft) 98 %
12.01.2017 10:20 3,5 C 3,1 C 3,5 C 91 % 1014,4 hPa 0,0 l/m 11,2 km/h (2 Bft) SW 225 10 min 0,000 mm 192 W/m 2,2 C -0,4 C 22,5 km/h (4 Bft) 97 %
12.01.2017 10:30 3,8 C 3,5 C 3,8 C 89 % 1014,5 hPa 0,0 l/m 12,3 km/h (3 Bft) S 187 0 min 0,000 mm 146 W/m 2,2 C -0,8 C 24,1 km/h (4 Bft) 98 %
12.01.2017 10:40 3,8 C 3,8 C 3,8 C 89 % 1014,4 hPa 0,0 l/m 11,6 km/h (2 Bft) SW 219 10 min 0,000 mm 171 W/m 2,2 C -0,4 C 25,7 km/h (4 Bft) 97 %
12.01.2017 10:50 3,9 C 3,8 C 3,9 C 89 % 1014,6 hPa 0,0 l/m 14,4 km/h (3 Bft) W-SW 256 10 min 0,000 mm 174 W/m 2,3 C -1,9 C 33,8 km/h (5 Bft) 99 %
12.01.2017 11:00 3,9 C 3,8 C 3,9 C 94 % 1014,5 hPa 0,0 l/m 12,9 km/h (3 Bft) SW 228 10 min 0,000 mm 158 W/m 3,0 C -1,1 C 32,2 km/h (5 Bft) 100 %
12.01.2017 11:10 3,8 C 3,8 C 3,9 C 94 % 1014,5 hPa 0,0 l/m 12,2 km/h (2 Bft) SW 227 0 min 0,076 mm 142 W/m 2,9 C -0,8 C 24,1 km/h (4 Bft) 99 %
12.01.2017 11:20 3,8 C 3,8 C 3,8 C 89 % 1014,5 hPa 0,0 l/m 9,6 km/h (2 Bft) W 259 0 min 0,001 mm 118 W/m 2,2 C 1,0 C 27,4 km/h (4 Bft) 100 %
12.01.2017 11:30 3,7 C 3,7 C 3,8 C 90 % 1014,1 hPa 0,0 l/m 11,8 km/h (2 Bft) SW 215 0 min 0,000 mm 104 W/m 2,2 C -0,6 C 27,4 km/h (4 Bft) 100 %
12.01.2017 11:40 3,7 C 3,7 C 3,7 C 90 % 1014,0 hPa 0,0 l/m 12,6 km/h (3 Bft) SW 233 0 min 0,000 mm 97 W/m 2,2 C -1,1 C 25,7 km/h (4 Bft) 91 %
12.01.2017 11:50 3,6 C 3,6 C 3,7 C 91 % 1013,9 hPa 0,0 l/m 9,9 km/h (2 Bft) S-SW 209 0 min 0,000 mm 97 W/m 2,3 C 0,6 C 17,7 km/h (3 Bft) 100 %
12.01.2017 12:00 3,6 C 3,6 C 3,6 C 91 % 1014,0 hPa 0,0 l/m 10,6 km/h (2 Bft) SW 225 0 min 0,050 mm 72 W/m 2,3 C 0,1 C 22,5 km/h (4 Bft) 100 %
12.01.2017 12:10 3,4 C 3,4 C 3,6 C 91 % 1013,7 hPa 0,0 l/m 12,0 km/h (2 Bft) SW 236 0 min 0,000 mm 72 W/m 2,1 C -1,1 C 30,6 km/h (5 Bft) 99 %
12.01.2017 12:20 3,4 C 3,4 C 3,4 C 91 % 1013,5 hPa 0,2 l/m 11,7 km/h (2 Bft) SW 232 0 min 0,000 mm 88 W/m 2,1 C -0,9 C 22,5 km/h (4 Bft) 98 %
12.01.2017 12:30 3,3 C 3,3 C 3,4 C 92 % 1013,4 hPa 0,0 l/m 10,3 km/h (2 Bft) SW 226 0 min 0,000 mm 88 W/m 2,1 C -0,0 C 17,7 km/h (3 Bft) 99 %
12.01.2017 12:40 3,4 C 3,3 C 3,4 C 92 % 1013,2 hPa 0,0 l/m 10,3 km/h (2 Bft) SW 217 0 min 0,000 mm 118 W/m 2,2 C 0,1 C 22,5 km/h (4 Bft) 89 %
12.01.2017 12:50 3,4 C 3,4 C 3,4 C 92 % 1013,1 hPa 0,0 l/m 14,7 km/h (3 Bft) S-SW 196 0 min 0,000 mm 81 W/m 2,2 C -2,7 C 30,6 km/h (5 Bft) 97 %
12.01.2017 13:00 3,4 C 3,4 C 3,4 C 92 % 1013,0 hPa 0,2 l/m 11,9 km/h (2 Bft) W-SW 257 0 min 0,051 mm 98 W/m 2,2 C -1,0 C 30,6 km/h (5 Bft) 98 %
12.01.2017 13:10 3,4 C 3,4 C 3,4 C 91 % 1012,9 hPa 0,0 l/m 10,9 km/h (2 Bft) S-SW 203 0 min 0,000 mm 97 W/m 2,1 C -0,3 C 27,4 km/h (4 Bft) 97 %
12.01.2017 13:20 3,3 C 3,3 C 3,4 C 92 % 1012,8 hPa 0,2 l/m 9,8 km/h (2 Bft) W-SW 245 0 min 0,000 mm 107 W/m 2,1 C 0,3 C 25,7 km/h (4 Bft) 98 %
12.01.2017 13:30 3,3 C 3,3 C 3,3 C 92 % 1012,6 hPa 0,0 l/m 11,6 km/h (2 Bft) W-SW 242 0 min 0,000 mm 114 W/m 2,1 C -0,9 C 33,8 km/h (5 Bft) 97 %
12.01.2017 13:40 3,2 C 3,2 C 3,3 C 92 % 1012,3 hPa 0,0 l/m 9,6 km/h (2 Bft) W-SW 251 0 min 0,000 mm 91 W/m 2,0 C 0,4 C 22,5 km/h (4 Bft) 98 %
12.01.2017 13:50 3,1 C 3,1 C 3,2 C 92 % 1012,1 hPa 0,2 l/m 9,5 km/h (2 Bft) W-SW 241 0 min 0,000 mm 93 W/m 1,9 C 0,4 C 22,5 km/h (4 Bft) 97 %
12.01.2017 14:00 3,1 C 3,1 C 3,2 C 92 % 1011,8 hPa 0,0 l/m 9,0 km/h (2 Bft) SW 219 0 min 0,051 mm 102 W/m 1,9 C 0,8 C 24,1 km/h (4 Bft) 97 %
12.01.2017 14:10 3,1 C 3,1 C 3,1 C 92 % 1011,7 hPa 0,0 l/m 9,7 km/h (2 Bft) SW 225 0 min 0,000 mm 93 W/m 1,9 C 0,2 C 22,5 km/h (4 Bft) 98 %
12.01.2017 14:20 3,1 C 3,1 C 3,1 C 92 % 1011,5 hPa 0,0 l/m 5,6 km/h (1 Bft) SW 224 0 min 0,000 mm 84 W/m 1,9 C 3,1 C 17,7 km/h (3 Bft) 98 %
12.01.2017 14:30 3,0 C 3,0 C 3,1 C 92 % 1011,3 hPa 0,2 l/m 5,9 km/h (2 Bft) SW 234 0 min 0,000 mm 79 W/m 1,8 C 3,0 C 16,1 km/h (3 Bft) 97 %
12.01.2017 14:40 3,0 C 3,0 C 3,0 C 92 % 1011,0 hPa 0,0 l/m 5,0 km/h (1 Bft) S 183 0 min 0,000 mm 69 W/m 1,8 C 3,0 C 19,3 km/h (3 Bft) 98 %
12.01.2017 14:50 2,9 C 2,9 C 3,0 C 92 % 1010,9 hPa 0,0 l/m 8,0 km/h (2 Bft) SW 221 0 min 0,000 mm 62 W/m 1,7 C 1,4 C 17,7 km/h (3 Bft) 97 %
12.01.2017 15:00 2,9 C 2,9 C 3,0 C 92 % 1010,6 hPa 0,0 l/m 7,2 km/h (2 Bft) S-SW 208 0 min 0,025 mm 46 W/m 1,7 C 2,1 C 17,7 km/h (3 Bft) 98 %
12.01.2017 15:10 2,9 C 2,9 C 2,9 C 92 % 1010,6 hPa 0,2 l/m 9,4 km/h (2 Bft) S-SW 212 0 min 0,000 mm 46 W/m 1,7 C 0,2 C 19,3 km/h (3 Bft) 97 %
12.01.2017 15:20 2,9 C 2,9 C 2,9 C 92 % 1010,4 hPa 0,0 l/m 6,7 km/h (2 Bft) SW 225 0 min 0,000 mm 47 W/m 1,7 C 2,6 C 17,7 km/h (3 Bft) 98 %
12.01.2017 15:30 2,8 C 2,8 C 2,9 C 92 % 1010,1 hPa 0,0 l/m 5,9 km/h (2 Bft) S-SW 209 0 min 0,000 mm 30 W/m 1,6 C 2,8 C 16,1 km/h (3 Bft) 97 %
12.01.2017 15:40 2,8 C 2,8 C 2,8 C 92 % 1010,0 hPa 0,0 l/m 4,1 km/h (1 Bft) S-SW 209 0 min 0,000 mm 32 W/m 1,6 C 2,8 C 11,3 km/h (2 Bft) 97 %
12.01.2017 15:50 2,8 C 2,8 C 2,8 C 92 % 1009,9 hPa 0,0 l/m 1,9 km/h (1 Bft) S-SW 202 0 min 0,000 mm 26 W/m 1,6 C 2,8 C 9,7 km/h (2 Bft) 98 %
12.01.2017 16:00 2,7 C 2,7 C 2,8 C 92 % 1009,5 hPa 0,0 l/m 0,0 km/h (0 Bft) S 190 0 min 0,000 mm 9 W/m 1,5 C 2,7 C 3,2 km/h (1 Bft) 97 %
12.01.2017 16:10 2,7 C 2,7 C 2,7 C 92 % 1009,1 hPa 0,0 l/m 0,0 km/h (0 Bft) S 191 0 min 0,025 mm 9 W/m 1,5 C 2,7 C 0,0 km/h (0 Bft) 98 %
12.01.2017 16:20 2,7 C 2,7 C 2,7 C 92 % 1008,9 hPa 0,0 l/m 0,0 km/h (0 Bft) S 191 0 min 0,001 mm 9 W/m 1,5 C 2,7 C 0,0 km/h (0 Bft) 97 %
12.01.2017 16:30 2,6 C 2,6 C 2,7 C 92 % 1008,6 hPa 0,0 l/m 0,0 km/h (0 Bft) S 191 0 min 0,000 mm 7 W/m 1,4 C 2,6 C 0,0 km/h (0 Bft) 97 %
12.01.2017 16:40 2,5 C 2,5 C 2,6 C 92 % 1008,4 hPa 0,0 l/m 0,0 km/h (0 Bft) S 187 0 min 0,000 mm 0 W/m 1,3 C 2,5 C 0,0 km/h (0 Bft) 97 %
12.01.2017 16:50 2,5 C 2,5 C 2,6 C 92 % 1008,1 hPa 0,0 l/m 0,0 km/h (0 Bft) S 184 0 min 0,000 mm 0 W/m 1,3 C 2,5 C 1,6 km/h (1 Bft) 97 %
12.01.2017 17:00 2,5 C 2,5 C 2,5 C 92 % 1007,9 hPa 0,0 l/m 0,0 km/h (0 Bft) SO 137 0 min 0,000 mm 0 W/m 1,3 C 2,5 C 0,0 km/h (0 Bft) 98 %
12.01.2017 17:10 2,6 C 2,5 C 2,6 C 92 % 1007,5 hPa 0,0 l/m 0,0 km/h (0 Bft) SO 138 0 min 0,000 mm 0 W/m 1,4 C 2,6 C 0,0 km/h (0 Bft) 98 %
12.01.2017 17:20 2,6 C 2,6 C 2,6 C 92 % 1007,1 hPa 0,0 l/m 0,0 km/h (0 Bft) SO 138 0 min 0,000 mm 0 W/m 1,4 C 2,6 C 0,0 km/h (0 Bft) 98 %
12.01.2017 17:30 2,6 C 2,5 C 2,6 C 92 % 1006,8 hPa 0,0 l/m 0,4 km/h (0 Bft) SO 139 0 min 0,000 mm 0 W/m 1,4 C 2,6 C 8,0 km/h (2 Bft) 97 %
12.01.2017 17:40 2,6 C 2,6 C 2,6 C 92 % 1006,5 hPa 0,0 l/m 4,5 km/h (1 Bft) S-SO 168 0 min 0,000 mm 0 W/m 1,4 C 2,6 C 9,7 km/h (2 Bft) 97 %
12.01.2017 17:50 2,7 C 2,6 C 2,7 C 92 % 1006,1 hPa 0,0 l/m 1,6 km/h (1 Bft) SO 144 0 min 0,000 mm 0 W/m 1,5 C 2,7 C 8,0 km/h (2 Bft) 98 %
12.01.2017 18:00 2,6 C 2,6 C 2,7 C 92 % 1005,9 hPa 0,0 l/m 0,4 km/h (0 Bft) S-SO 152 0 min 0,000 mm 0 W/m 1,4 C 2,6 C 6,4 km/h (2 Bft) 97 %
12.01.2017 18:10 2,5 C 2,5 C 2,6 C 92 % 1005,6 hPa 0,0 l/m 1,5 km/h (1 Bft) S-SO 149 0 min 0,000 mm 0 W/m 1,3 C 2,5 C 8,0 km/h (2 Bft) 98 %
12.01.2017 18:20 2,6 C 2,5 C 2,6 C 92 % 1005,2 hPa 0,2 l/m 2,5 km/h (1 Bft) SO 137 0 min 0,000 mm 0 W/m 1,4 C 2,6 C 16,1 km/h (3 Bft) 97 %
12.01.2017 18:30 2,7 C 2,6 C 2,7 C 92 % 1004,9 hPa 0,0 l/m 5,3 km/h (1 Bft) S-SO 151 0 min 0,000 mm 0 W/m 1,5 C 2,7 C 14,5 km/h (3 Bft) 98 %
12.01.2017 18:40 2,7 C 2,7 C 2,7 C 92 % 1004,4 hPa 0,2 l/m 2,5 km/h (1 Bft) SO 138 0 min 0,000 mm 0 W/m 1,5 C 2,7 C 9,7 km/h (2 Bft) 99 %
12.01.2017 18:50 2,6 C 2,6 C 2,7 C 92 % 1004,1 hPa 0,0 l/m 4,5 km/h (1 Bft) S-SO 148 0 min 0,000 mm 0 W/m 1,4 C 2,6 C 11,3 km/h (2 Bft) 100 %
12.01.2017 19:00 2,6 C 2,6 C 2,6 C 92 % 1003,6 hPa 0,0 l/m 2,8 km/h (1 Bft) S-SO 151 0 min 0,000 mm 0 W/m 1,4 C 2,6 C 11,3 km/h (2 Bft) 100 %
12.01.2017 19:10 2,6 C 2,6 C 2,6 C 92 % 1003,2 hPa 0,2 l/m 2,0 km/h (1 Bft) S-SO 151 0 min 0,000 mm 0 W/m 1,4 C 2,6 C 9,7 km/h (2 Bft) 100 %
12.01.2017 19:20 2,6 C 2,6 C 2,6 C 92 % 1002,9 hPa 0,0 l/m 3,1 km/h (1 Bft) S-SO 161 0 min 0,000 mm 0 W/m 1,4 C 2,6 C 8,0 km/h (2 Bft) 100 %
12.01.2017 19:30 2,6 C 2,6 C 2,6 C 92 % 1002,5 hPa 0,2 l/m 1,5 km/h (1 Bft) SO 127 0 min 0,000 mm 0 W/m 1,4 C 2,6 C 9,7 km/h (2 Bft) 100 %
12.01.2017 19:40 2,6 C 2,6 C 2,6 C 92 % 1002,0 hPa 0,0 l/m 2,9 km/h (1 Bft) O-SO 112 0 min 0,000 mm 0 W/m 1,4 C 2,6 C 9,7 km/h (2 Bft) 100 %
12.01.2017 19:50 2,6 C 2,6 C 2,6 C 92 % 1001,7 hPa 0,2 l/m 2,8 km/h (1 Bft) SO 140 0 min 0,000 mm 0 W/m 1,4 C 2,6 C 11,3 km/h (2 Bft) 100 %
12.01.2017 20:00 2,6 C 2,6 C 2,6 C 92 % 1001,4 hPa 0,2 l/m 3,8 km/h (1 Bft) S-SO 149 0 min 0,000 mm 0 W/m 1,4 C 2,6 C 14,5 km/h (3 Bft) 100 %
12.01.2017 20:10 2,6 C 2,6 C 2,6 C 92 % 1000,9 hPa 0,0 l/m 1,9 km/h (1 Bft) SO 145 0 min 0,000 mm 0 W/m 1,4 C 2,6 C 8,0 km/h (2 Bft) 100 %
12.01.2017 20:20 2,7 C 2,6 C 2,7 C 92 % 1000,6 hPa 0,2 l/m 4,8 km/h (1 Bft) SO 134 0 min 0,000 mm 0 W/m 1,5 C 2,7 C 11,3 km/h (2 Bft) 100 %
12.01.2017 20:30 2,7 C 2,6 C 2,7 C 92 % 1000,1 hPa 0,0 l/m 2,3 km/h (1 Bft) S-SO 163 0 min 0,000 mm 0 W/m 1,5 C 2,7 C 12,9 km/h (3 Bft) 100 %
12.01.2017 20:40 2,6 C 2,6 C 2,7 C 92 % 999,8 hPa 0,2 l/m 3,4 km/h (1 Bft) SO 137 0 min 0,000 mm 0 W/m 1,4 C 2,6 C 11,3 km/h (2 Bft) 99 %
12.01.2017 20:50 2,6 C 2,6 C 2,7 C 92 % 999,2 hPa 0,2 l/m 2,8 km/h (1 Bft) S-SO 157 0 min 0,000 mm 0 W/m 1,4 C 2,6 C 12,9 km/h (3 Bft) 100 %
12.01.2017 21:00 2,6 C 2,6 C 2,7 C 92 % 999,0 hPa 0,2 l/m 1,5 km/h (1 Bft) S 186 0 min 0,000 mm 0 W/m 1,4 C 2,6 C 8,0 km/h (2 Bft) 100 %
12.01.2017 21:10 2,6 C 2,5 C 2,6 C 92 % 998,7 hPa 0,2 l/m 3,2 km/h (1 Bft) S-SO 157 0 min 0,000 mm 0 W/m 1,4 C 2,6 C 16,1 km/h (3 Bft) 99 %
12.01.2017 21:20 2,6 C 2,6 C 2,6 C 92 % 998,4 hPa 0,2 l/m 6,4 km/h (2 Bft) SO 135 0 min 0,000 mm 0 W/m 1,4 C 2,6 C 17,7 km/h (3 Bft) 89 %
12.01.2017 21:30 2,7 C 2,6 C 2,7 C 92 % 998,0 hPa 0,2 l/m 4,8 km/h (1 Bft) S-SO 157 0 min 0,000 mm 0 W/m 1,5 C 2,7 C 12,9 km/h (3 Bft) 100 %
12.01.2017 21:40 2,7 C 2,6 C 2,7 C 92 % 997,5 hPa 0,0 l/m 8,0 km/h (2 Bft) S-SO 157 0 min 0,000 mm 0 W/m 1,5 C 1,2 C 17,7 km/h (3 Bft) 100 %
12.01.2017 21:50 2,8 C 2,7 C 2,8 C 92 % 997,0 hPa 0,2 l/m 9,7 km/h (2 Bft) S-SO 157 0 min 0,000 mm 0 W/m 1,6 C -0,1 C 17,7 km/h (3 Bft) 100 %
12.01.2017 22:00 2,8 C 2,8 C 2,8 C 92 % 996,5 hPa 0,0 l/m 11,3 km/h (2 Bft) S-SO 157 0 min 0,000 mm 0 W/m 1,6 C -1,3 C 22,5 km/h (4 Bft) 100 %
12.01.2017 22:10 3,0 C 2,8 C 3,0 C 92 % 996,1 hPa 0,0 l/m 11,3 km/h (2 Bft) S-SO 157 0 min 0,000 mm 0 W/m 1,8 C -1,1 C 22,5 km/h (4 Bft) 100 %
12.01.2017 22:20 3,0 C 3,0 C 3,0 C 92 % 995,7 hPa 0,2 l/m 9,7 km/h (2 Bft) S-SO 157 0 min 0,000 mm 0 W/m 1,8 C 0,1 C 20,9 km/h (4 Bft) 100 %
12.01.2017 22:30 3,1 C 3,0 C 3,1 C 92 % 995,3 hPa 0,2 l/m 9,7 km/h (2 Bft) S-SO 157 0 min 0,000 mm 0 W/m 1,9 C 0,2 C 20,9 km/h (4 Bft) 100 %
12.01.2017 22:40 3,1 C 3,1 C 3,1 C 92 % 995,1 hPa 0,0 l/m 9,7 km/h (2 Bft) S-SO 157 0 min 0,000 mm 0 W/m 1,9 C 0,2 C 19,3 km/h (3 Bft) 100 %
12.01.2017 22:50 3,2 C 3,1 C 3,2 C 92 % 994,7 hPa 0,2 l/m 11,3 km/h (2 Bft) S-SO 157 0 min 0,000 mm 0 W/m 2,0 C -0,8 C 20,9 km/h (4 Bft) 100 %
12.01.2017 23:00 3,2 C 3,2 C 3,2 C 92 % 994,2 hPa 0,0 l/m 12,9 km/h (3 Bft) S-SO 157 0 min 0,000 mm 0 W/m 2,0 C -1,9 C 25,7 km/h (4 Bft) 100 %
12.01.2017 23:10 3,3 C 3,2 C 3,3 C 93 % 994,0 hPa 0,0 l/m 12,9 km/h (3 Bft) S-SO 157 0 min 0,000 mm 0 W/m 2,3 C -1,8 C 25,7 km/h (4 Bft) 100 %
12.01.2017 23:20 3,4 C 3,3 C 3,4 C 93 % 993,8 hPa 0,0 l/m 12,9 km/h (3 Bft) S-SO 157 0 min 0,000 mm 0 W/m 2,4 C -1,7 C 27,4 km/h (4 Bft) 100 %
12.01.2017 23:30 3,5 C 3,4 C 3,5 C 92 % 993,4 hPa 0,2 l/m 14,5 km/h (3 Bft) S-SO 157 0 min 0,000 mm 0 W/m 2,3 C -2,5 C 29,0 km/h (5 Bft) 100 %
12.01.2017 23:40 3,6 C 3,5 C 3,6 C 92 % 993,2 hPa 0,0 l/m 14,5 km/h (3 Bft) S-SO 157 0 min 0,000 mm 0 W/m 2,4 C -2,3 C 29,0 km/h (5 Bft) 100 %
12.01.2017 23:50 3,6 C 3,6 C 3,6 C 92 % 992,8 hPa 0,0 l/m 14,5 km/h (3 Bft) S-SO 157 0 min 0,000 mm 0 W/m 2,4 C -2,3 C 27,4 km/h (4 Bft) 100 %
_ Min-Zeit 07:00 07:00 06:50 04:20 23:50 - 16:00 - - - - - 06:40 12:50 16:10 05:40
Minimum _ 2,1 C 2,1 C 2,2 C 89 % 992,8 hPa - 0,0 km/h (0 Bft) - - - - - 0,9 C -2,7 C 0,0 km/h (0 Bft) 88 %
_ Max-Zeit 10:50 10:40 10:50 11:00 09:10 12:20 12:50 - - 10:10 11:10 10:20 11:00 14:20 10:50 08:10
Maximum _ 3,9 C 3,8 C 3,9 C 94 % 1014,9 hPa 0,2 l/m 14,7 km/h
S-SW (3 Bft)
- - 10 min 0,076 mm 192 W/m 3,0 C 3,1 C 33,8 km/h
W-SW (5 Bft)
100 %
Durchschnitt _ 2,8 C 2,8 C 2,8 C 92 % 1009,4 hPa #4,8 l/m 7,0 km/h (2 Bft) W - #50 min. #0,305 mm 79 W/m 1,6 C 1,2 C 17,5 km/h (3 Bft) 98 %
PRIVATE WETTERSTATION BILLIGHEIM-ALLFELD - www.neckar-odenwald-wetter.de - Holger Sonntag